Location: Dodgeville, WI 53533, USA
(43.0344°N, 90.0900°W)
Time: 02:55:03
(UTC-05:00)

Envisat - Visible Passes

Search period start: 23 September 2023 00:00
Search period end: 03 October 2023 00:00
Orbit: 763 x 764 km, 98.2° (Epoch: 22 September)

Date Brightness Start Highest point End Pass type
(mag) Time Alt. Az. Time Alt. Az. Time Alt. Az.
23 Sep 4.3 04:05:50 10° NNE 04:10:31 36° E 04:12:57 23° SSE visible
23 Sep 3.9 05:45:03 10° N 05:49:21 28° WNW 05:53:07 12° WSW visible
24 Sep 5.4 03:29:47 10° NE 03:33:00 17° E 03:35:12 13° ESE visible
24 Sep 3.0 05:07:23 10° N 05:12:23 60° WNW 05:15:22 24° SW visible
25 Sep 3.3 04:30:10 10° NNE 04:35:13 62° E 04:37:37 30° S visible
25 Sep 4.5 06:10:22 10° NNW 06:13:41 18° WNW 06:17:01 10° WSW visible
26 Sep 4.7 03:53:29 10° NE 03:57:50 28° E 03:59:52 21° SE visible
26 Sep 3.6 05:32:14 10° N 05:36:51 36° WNW 05:40:02 18° SW visible
27 Sep 5.7 03:18:05 10° ENE 03:20:15 13° E 03:22:07 11° ESE visible
27 Sep 2.9 04:54:43 10° N 04:59:49 78° WNW 05:02:17 31° SSW visible
28 Sep 3.8 04:17:39 10° NNE 04:22:34 48° E 04:24:31 32° SSE visible
28 Sep 4.2 05:57:21 10° NNW 06:01:13 22° WNW 06:04:41 12° WSW visible
29 Sep 5.1 03:41:14 10° NE 03:45:07 22° E 03:46:46 19° ESE visible
29 Sep 3.3 05:19:28 10° N 05:24:19 46° WNW 05:26:56 25° SW visible
30 Sep 3.0 04:42:06 10° NNE 04:47:13 82° ESE 04:49:10 39° S visible
30 Sep 4.7 06:22:57 10° NNW 06:25:30 14° WNW 06:28:03 10° W visible
01 Oct 4.3 04:05:13 10° NNE 04:09:54 36° E 04:11:24 30° SE visible
01 Oct 3.9 05:44:26 10° N 05:48:44 28° WNW 05:51:34 17° WSW visible
02 Oct 5.4 03:29:09 10° NE 03:32:23 17° E 03:33:38 15° ESE visible
02 Oct 3.0 05:06:45 10° N 05:11:46 60° WNW 05:13:48 34° SW visible
